Location: Syracuse
(43.0480°N, 76.1480°W)
Time: 01:08:14
(UTC-04:00)

Daily predictions for brighter satellites

Satellite Brightness Start Highest point End
(mag) Time Altitude Azimuth Time Altitude Azimuth Time Altitude Azimuth
Cosmos 2263 Rocket 4.0 00:04:25 10° NW 00:07:11 24° WNW 00:07:11 24° WNW
Lacrosse 4 Rocket 4.5 00:14:40 12° NNE 00:14:40 12° NNE 00:14:59 10° NNE
Cosmos 2322 Rocket 4.3 00:14:22 18° WNW 00:16:11 21° NW 00:20:24 10° N
ATLAS 3B R/B 4.3 00:23:00 25° ENE 00:23:00 25° ENE 00:26:16 10° NE
Cosmos 2237 Rocket 4.5 00:27:00 16° NE 00:27:00 16° NE 00:28:12 10° NE
Cosmos 2333 Rocket 4.3 00:27:44 18° NE 00:27:44 18° NE 00:29:18 10° NE
COSMOS 2428 4.2 00:43:01 32° N 00:43:01 32° N 00:46:03 10° NNE
ATLAS CENTAUR R/B 4.3 00:42:26 64° WSW 00:44:39 84° NW 01:12:00 10° NE
Cosmos 2278 Rocket 3.8 00:51:54 10° NNW 00:54:50 31° NNW 00:54:50 31° NNW
CZ-2C R/B 4.2 01:16:25 10° NNE 01:19:23 33° NNE 01:19:23 33° NNE
Cosmos 2360 Rocket 4.5 01:27:34 16° NW 01:28:03 16° NW 01:31:32 10° N
Cosmos 2219 Rocket 3.8 01:49:27 29° NNW 01:49:27 29° NNW 01:52:50 10° N
SL-16 R/B 3.4 02:05:24 38° NNE 02:05:24 38° NNE 02:08:51 10° NNE
Cosmos 2237 Rocket 3.6 02:08:49 32° NNW 02:08:49 32° NNW 02:12:30 10° NNE
Cosmos 2333 Rocket 3.7 02:09:43 30° NNW 02:09:43 30° NNW 02:13:34 10° N
ATLAS 3B R/B 3.3 02:10:14 55° NW 02:10:14 55° NW 02:17:20 10° NNE
ATLAS CENTAUR R/B 4.1 02:11:26 10° NNW 02:13:15 18° N 02:13:15 18° N
CZ-4C R/B 3.2 02:21:12 42° NE 02:21:12 42° NE 02:25:11 10° NE
COSMOS 2455 4.2 02:22:56 32° NW 02:22:56 32° NW 02:27:39 10° NNE
ATLAS 5 CENTAUR R/B 4.5 02:33:43 12° E 02:33:43 12° E 02:34:37 10° E
SL-16 R/B 4.1 02:38:26 18° ESE 02:41:58 31° ENE 02:47:16 10° N
Cosmos 1603 4.3 02:47:15 55° NE 02:47:15 55° NE 02:51:42 10° NNE
Cosmos 1553 Rocket 4.2 02:49:20 66° ENE 02:49:20 66° ENE 02:54:52 10° NNE
Cosmos 1745 Rocket 4.2 02:45:58 10° N 02:52:19 68° E 02:52:19 68° E
CZ-2D R/B 3.7 02:57:26 10° NE 03:01:46 25° E 03:02:30 25° ESE
USA 234 3.9 02:57:15 10° ENE 03:03:20 40° SE 03:03:20 40° SE
ARIANE 5 R/B 3.7 03:00:11 10° NNE 03:04:58 35° E 03:05:07 34° E
USA 238 DEB 4.2 03:05:39 47° WNW 03:06:19 48° NW 03:13:07 10° NNE
USA 238 4.2 03:05:45 47° WNW 03:06:24 49° NW 03:13:13 10° NNE
Meteor 2-3 Rocket 4.1 03:05:00 10° N 03:10:42 60° ENE 03:11:18 57° ESE
ADEOS 4.0 03:05:42 10° NNE 03:10:23 56° ENE 03:10:23 56° ENE
Cosmos 1943 3.5 03:15:03 58° E 03:15:03 58° E 03:20:24 10° NNE
NOSS 3-2 (A) 3.4 03:20:43 75° WNW 03:20:52 75° NW 03:27:34 10° NE
NPP 4.0 03:17:08 10° N 03:21:41 55° NNW 03:21:41 55° NNW
Cosmos 2369 Rocket 2.1 03:18:59 10° NNW 03:24:37 81° ENE 03:24:37 81° ENE
UNK 4.5 03:25:16 48° E 03:25:31 49° ENE 03:29:58 10° N
Cosmos 724 4.4 03:29:19 62° SE 03:29:42 63° ESE 03:35:40 10° NE
NOSS 3-3 (A) 4.3 03:23:59 10° NW 03:31:23 67° WSW 03:33:13 52° S
NOSS 3-3 (C) 4.3 03:24:04 10° NW 03:31:28 67° WSW 03:33:32 50° S
Resurs 1-4 Rocket 2.7 03:27:45 10° NNE 03:32:51 49° E 03:33:46 44° SE
CENTAUR R/B 3.7 03:32:55 27° SE 03:34:48 32° ESE 03:40:37 10° NE
Cosmos 883 Rocket 4.4 03:35:07 65° SSE 03:36:05 82° E 03:42:14 10° N
Cosmos 1455 3.7 03:36:58 34° E 03:36:58 34° E 03:40:16 10° NNE
Centaur D-1A AC-31 4.0 03:08:23 10° WSW 03:38:22 34° S 03:44:01 10° SE
NOSS 3-2 (C) 3.4 03:37:46 65° W 03:38:29 71° NW 03:45:13 10° NNE
Cosmos 2251 Rocket 3.5 03:42:50 68° NW 03:42:50 68° NW 03:47:53 10° NNE
Cosmos 1943 Rocket 3.0 03:38:16 10° NNW 03:43:48 51° ENE 03:49:16 10° SE
Abrixas rocket 4.4 03:45:11 26° NE 03:45:11 26° NE 03:47:18 10° ENE
Okean O Rocket 3.9 03:42:35 10° NE 03:45:55 20° E 03:48:35 13° SE
SL-16 R/B 4.1 03:47:17 16° NW 03:48:05 17° NW 03:51:41 10° N
Cosmos 2315 Rocket 4.0 03:51:10 45° S 03:53:16 80° E 03:59:34 10° N
ERS-1 4.5 03:54:33 10° N 03:59:27 59° WNW 03:59:32 59° WNW
Cosmos 2263 4.1 03:55:08 10° NNW 04:00:56 74° WSW 04:03:20 36° S
Meteor 2-11 Rocket 4.4 03:59:03 39° S 04:01:29 79° E 04:07:34 10° N
ERS-2 3.2 03:57:51 10° N 04:00:25 39° NNW 04:00:25 39° NNW
Cosmos 839 Rocket 4.5 03:57:12 10° NW 04:04:52 48° WSW 04:06:14 43° SW
CZ-4C R/B 3.8 04:06:22 19° WNW 04:08:31 24° NNW 04:13:28 10° NNE
Cosmos 1825 4.1 04:07:33 10° NNE 04:10:55 29° ENE 04:14:16 10° SE
Cosmos 494 Rocket 4.2 04:11:19 48° W 04:11:56 51° WNW 04:17:04 10° N
ATLAS 5 CENTAUR R/B 1.8 04:15:16 57° SW 04:16:18 83° NW 04:21:36 10° NE
Meteor 2-10 4.3 04:20:36 45° WSW 04:21:53 56° WNW 04:27:12 10° N
Cosmos 2242 Rocket 4.0 04:22:02 44° W 04:22:08 44° WNW 04:26:32 10° N
Cosmos 1862 Rocket 3.4 04:21:36 50° S 04:22:43 89° WNW 04:27:09 10° N
SL-16 R/B 2.7 04:23:32 37° SW 04:25:21 46° W 04:31:18 10° NNW
Cosmos 1302 Rocket 4.3 04:23:24 10° NNW 04:28:22 43° WSW 04:28:59 42° WSW
EO 1 Del DPAF 3.6 04:35:15 44° W 04:35:15 44° W 04:38:45 10° NNW
IRS-1D 4.2 04:31:40 10° N 04:36:28 39° WNW 04:37:54 32° WSW
UNKNOWN OBJECT B 2.8 04:32:53 10° N 04:36:30 51° WNW 04:36:50 49° W
Cosmos 1862 3.6 04:32:38 10° N 04:36:36 68° E 04:40:33 10° SSE
Nadezhda 1 Rocket 4.5 04:31:31 10° S 04:37:38 62° E 04:43:55 10° NNE
Cosmos 1709 Rocket 4.4 04:33:16 10° NNW 04:39:07 41° W 04:41:39 28° SW
CZ-2C R/B 3.6 04:35:56 10° SSE 04:40:22 82° ENE 04:44:50 10° NNW
Cosmos 1892 4.4 04:38:26 10° NW 04:40:10 19° WNW 04:40:10 19° WNW
CZ-2D R/B 2.6 04:37:03 10° N 04:42:00 42° WNW 04:43:49 31° WSW
Cosmos 1184 Rocket 3.6 04:39:55 10° NNW 04:42:34 37° WNW 04:42:34 37° WNW
ARIANE 5 R/B 3.5 04:39:24 10° N 04:43:59 31° WNW 04:45:27 27° W
SeaSat 1 2.3 04:40:22 10° SSE 04:45:17 77° WSW 04:50:15 10° NNW
Cosmos 1869 3.6 04:44:49 40° WSW 04:45:32 45° WNW 04:49:22 10° N
USA 234 3.4 04:40:04 10° NE 04:46:32 64° NW 04:50:41 24° WSW
Cosmos 1733 Rocket 3.6 04:42:39 10° NNW 04:46:44 38° W 04:47:36 34° WSW
Cosmos 389 Rocket 2.7 04:49:10 43° WSW 04:49:46 49° WNW 04:53:12 10° N
Cosmos 1782 Rocket 3.8 04:51:47 10° N 04:56:09 69° E 05:00:26 10° SSE
Cosmos 1933 3.3 04:54:19 21° SSW 04:56:57 75° W 05:01:04 10° N
Cosmos 546 4.5 04:55:59 16° WNW 04:58:55 70° SSW 05:02:44 10° SE
CZ-4B R/B 2.7 04:55:30 10° NNE 04:59:11 81° ESE 05:02:25 14° S
Cosmos 2074 Rocket 4.0 04:55:49 10° NNW 05:01:55 61° W 05:08:02 10° S
COSMOS 2406 3.2 04:58:36 18° SSW 05:02:59 80° WNW 05:08:47 10° NNE
Cosmos 2327 Rocket 4.5 04:58:00 10° NNW 05:04:00 60° W 05:10:03 10° S
Cosmos 2154 Rocket 4.3 04:59:36 10° N 05:05:57 74° E 05:12:17 10° SSE
Atlas Centaur 2 3.8 05:05:12 10° S 05:07:07 12° SSE 05:09:11 10° SE
Cosmos 2184 Rocket 4.1 05:00:53 10° NNW 05:07:08 58° W 05:13:19 10° S
Cosmos 2369 Rocket 4.0 05:05:01 10° WNW 05:06:18 13° W 05:06:18 13° W
MOZ.5/SAFIR/RUBIN 5/SL-8 4.0 05:04:21 10° S 05:08:47 47° W 05:13:17 10° NNW
ASTRO F (AKARI) 4.4 05:06:39 10° SSE 05:10:14 82° WSW 05:13:39 10° NNW
COSMOS 2487 3.4 05:07:38 10° S 05:11:08 49° ESE 05:14:38 10° NNE
Aureole 3 Rocket 3.8 05:04:17 10° S 05:11:16 88° W 05:16:09 10° N
CZ-2D R/B 4.4 05:07:31 10° N 05:11:25 32° WNW 05:13:35 20° WSW
Cosmos 1174 4.3 05:07:43 18° SW 05:11:37 70° WNW 05:15:57 10° NNE
Resurs 1-4 Rocket 3.4 05:08:18 10° NNW 05:12:23 23° WNW 05:14:50 17° W
Cosmos 1455 3.9 05:12:01 17° W 05:12:33 17° WNW 05:15:10 10° NNW
CZ-4B R/B 3.1 05:08:36 10° N 05:13:53 72° WNW 05:19:09 10° SSW
CZ-4B DEB 4.2 05:08:49 10° NNE 05:14:18 78° WNW 05:19:45 10° SSW
Cosmos 1190 Rocket 4.0 05:11:04 10° SSW 05:16:16 85° ESE 05:21:29 10° NNE
ADEOS Rocket 3.9 05:08:32 10° NNE 05:16:18 72° ESE 05:24:00 10° S
Cosmos 1908 Rocket 4.0 05:12:23 10° NNW 05:16:30 40° W 05:20:34 10° SSW
Abrixas rocket 2.7 05:18:23 10° WNW 05:21:42 61° NNE 05:25:01 10° ESE
Okean O Rocket 2.2 05:18:15 10° N 05:22:26 40° WNW 05:26:02 13° SW
Cosmos 1992 Rocket 4.2 05:17:31 10° NNW 05:22:30 46° WSW 05:27:29 10° S
Thor Agena Rocket 3.5 05:17:25 10° S 05:22:31 64° WSW 05:27:43 10° NNW
CENTAUR R/B 2.9 05:20:07 16° WSW 05:25:05 52° NW 05:31:57 10° NNE
ADEOS II 2.5 05:20:05 10° NNE 05:25:21 67° ESE 05:30:34 10° S
Cosmos 2221 Rocket 3.7 05:21:16 10° SSW 05:25:36 53° W 05:29:57 10° N
Cosmos 1943 Rocket 3.2 05:22:43 10° NW 05:27:10 24° WSW 05:31:35 10° SSW
Cosmos 2341 Rocket 4.1 05:22:25 10° N 05:28:44 85° E 05:35:06 10° S
SL-27 R/B 3.9 05:27:08 16° WSW 05:29:01 23° WNW 05:32:00 10° N
Okean-O 2.8 05:25:05 10° NNE 05:29:33 80° ESE 05:33:59 10° S
USA 32 4.3 05:27:17 10° SSW 05:32:20 49° W 05:37:26 10° N
Cosmos 1408 3.7 05:29:12 10° NNW 05:32:21 26° W 05:35:30 10° SSW
PSLV R/B 3.9 05:32:00 14° W 05:34:37 39° SSW 05:37:49 10° SE
Cosmos 1703 Rocket 4.2 05:31:12 10° SW 05:35:23 38° WNW 05:39:36 10° N
Cosmos 1825 3.7 05:43:42 10° NW 05:46:19 18° W 05:48:55 10° SW
Cosmos 2151 Rocket 3.6 05:45:59 10° N 05:50:24 86° W 05:54:48 10° S
PSLV R/B 3.8 05:48:26 10° N 05:52:42 51° WNW 05:56:57 10° SSW
USA 116 4.5 05:48:22 10° S 05:53:05 56° W 05:58:17 10° NNW
Meteor 1-31 Rocket 3.0 05:49:21 10° NNE 05:53:10 73° ESE 05:56:58 10° S
Cosmos 676 Rocket 4.0 05:49:00 10° SSW 05:54:10 75° WNW 05:59:24 10° NNE
Cosmos 1656 Rocket 4.4 05:51:56 10° NW 05:56:29 28° WSW 06:01:01 10° SSW
Cosmos 2218 Rocket 4.3 05:54:00 10° N 06:00:10 74° E 06:06:18 10° SSE
Meteor 1-25 Rocket 4.2 05:56:32 10° NNW 06:02:04 74° W 06:07:37 10° S
